Voltar ao catálogo

VINASAT 2

AtivoComunicaçõesGEO
NORAD 38332·PAYLOAD·🇻🇳 Vietnam

Lançado May 15, 2012 de Guiana Space Centre

Loading…

TLE

AtualizadoSource: Space-Track

Época: Sep 14, 2026, 14:25 UTC

1 38332U 12023B   26257.60127446 -.00000336  00000-0  00000-0 0  9992
2 38332   0.0445 328.8262 0002067 194.9546 178.1104  1.00272345 47555

Acompanhe VINASAT 2 em tempo real com AllMySat

Download on the App Store